STARLINK-32657

Last updated on Fri Jan 31 2025 00:02:04 GMT+0000 (Coordinated Universal Time)

1 62475U 24254P 25030.58334491 -.00003983 00000+0 -88182-4 0 9993 2 62475 43.0002 137.1395 0001399 268.6048 110.6424 15.40688052 5877
UTC large
Height (km)
Speed (km/s)
/
Latitude / Longitude
Inclination (degrees)
Orbital Period (minutes)
Azimuth
Elevation
Range (km)
Doppler Factor

Next 0 passes for location: London (51.5072 / 0.1276)

Sorry there are no passes over London.